TimeCST,TemperatureF,Dew PointF,Humidity,Sea Level PressureIn,VisibilityMPH,Wind Direction,Wind SpeedMPH,Gust SpeedMPH,PrecipitationIn,Events,Conditions,WindDirDegrees,DateUTC
12:15 AM,67.6,66.2,95,29.78,1.5,ESE,4.6,-,N/A,,Mist,120,2013-12-05 06:15:00
12:35 AM,68.0,66.4,95,29.77,1.2,SSE,5.8,-,N/A,,Mostly Cloudy,150,2013-12-05 06:35:00
12:55 AM,69.3,67.6,95,29.77,0.5,SSE,6.9,-,N/A,Fog,Fog,150,2013-12-05 06:55:00
1:15 AM,69.4,68.0,95,29.77,0.8,SSE,5.8,-,N/A,,Overcast,150,2013-12-05 07:15:00
1:35 AM,69.8,68.0,94,29.77,1.0,SE,6.9,-,N/A,,Overcast,130,2013-12-05 07:35:00
1:55 AM,69.8,68.0,94,29.77,1.5,SSE,6.9,-,N/A,,Overcast,150,2013-12-05 07:55:00
2:15 AM,69.6,68.0,95,29.77,1.5,SE,6.9,-,N/A,,Overcast,140,2013-12-05 08:15:00
2:35 AM,69.4,68.0,95,29.76,1.8,SE,8.1,-,N/A,,Overcast,140,2013-12-05 08:35:00
2:55 AM,69.4,68.0,95,29.76,1.8,SE,9.2,-,N/A,,Overcast,140,2013-12-05 08:55:00
3:15 AM,69.3,68.0,96,29.76,2.0,SE,10.4,-,N/A,,Overcast,140,2013-12-05 09:15:00
3:35 AM,69.3,67.8,95,29.76,2.5,SE,6.9,-,N/A,,Overcast,140,2013-12-05 09:35:00
3:55 AM,69.1,67.6,95,29.77,2.5,SE,5.8,-,N/A,,Overcast,140,2013-12-05 09:55:00
4:15 AM,68.9,67.5,95,29.77,2.5,SE,5.8,-,N/A,,Overcast,130,2013-12-05 10:15:00
4:35 AM,69.1,67.5,95,29.77,2.5,SE,5.8,-,N/A,,Overcast,130,2013-12-05 10:35:00
4:55 AM,68.9,67.3,95,29.77,2.5,SE,6.9,-,N/A,,Overcast,140,2013-12-05 10:55:00
5:15 AM,68.9,67.3,95,29.77,2.5,SE,8.1,-,N/A,,Overcast,140,2013-12-05 11:15:00
5:35 AM,68.9,67.1,94,29.77,3.0,SE,8.1,-,N/A,,Overcast,140,2013-12-05 11:35:00
5:55 AM,68.9,67.1,94,29.78,2.5,SE,6.9,-,N/A,,Overcast,130,2013-12-05 11:55:00
6:15 AM,68.9,67.1,94,29.79,3.0,SE,6.9,-,N/A,,Overcast,140,2013-12-05 12:15:00
6:35 AM,68.9,67.1,94,29.79,3.0,SE,5.8,-,N/A,,Overcast,130,2013-12-05 12:35:00
6:55 AM,68.9,67.1,94,29.80,3.0,SE,5.8,-,N/A,,Overcast,130,2013-12-05 12:55:00
7:15 AM,68.5,66.7,94,29.80,3.0,SE,6.9,-,N/A,,Overcast,130,2013-12-05 13:15:00
7:35 AM,68.9,67.1,94,29.80,2.0,SE,6.9,-,N/A,,Overcast,130,2013-12-05 13:35:00
7:55 AM,68.5,66.7,94,29.81,1.8,SE,6.9,-,N/A,,Overcast,130,2013-12-05 13:55:00
8:15 AM,68.5,66.7,94,29.82,2.0,SE,5.8,-,N/A,,Overcast,140,2013-12-05 14:15:00
8:35 AM,68.9,66.7,93,29.82,2.5,SSE,8.1,-,N/A,,Overcast,150,2013-12-05 14:35:00
8:55 AM,69.4,66.7,91,29.82,2.5,SE,6.9,-,N/A,,Overcast,140,2013-12-05 14:55:00
9:15 AM,69.3,67.1,93,29.83,2.5,SE,8.1,-,N/A,,Overcast,130,2013-12-05 15:15:00
9:35 AM,70.7,66.0,85,29.83,4.0,SE,5.8,-,N/A,,Haze,140,2013-12-05 15:35:00
9:55 AM,71.2,65.3,81,29.84,5.0,SE,5.8,-,N/A,,Haze,130,2013-12-05 15:55:00
10:15 AM,73.2,65.5,77,29.84,5.0,ESE,6.9,-,N/A,,Haze,110,2013-12-05 16:15:00
10:35 AM,75.2,64.8,70,29.85,7.0,SE,3.5,-,N/A,,Scattered Clouds,140,2013-12-05 16:35:00
10:55 AM,77.0,64.8,66,29.83,7.0,SE,5.8,-,N/A,,Clear,130,2013-12-05 16:55:00
11:15 AM,78.4,64.9,63,29.83,7.0,ESE,8.1,-,N/A,,Clear,110,2013-12-05 17:15:00
11:35 AM,79.7,64.4,59,29.83,7.0,SE,4.6,-,N/A,,Clear,130,2013-12-05 17:35:00
11:55 AM,81.0,63.7,56,29.82,7.0,SE,6.9,-,N/A,,Clear,140,2013-12-05 17:55:00
12:15 PM,82.6,63.5,52,29.81,7.0,SE,5.8,-,N/A,,Clear,140,2013-12-05 18:15:00
12:35 PM,83.1,63.5,51,29.79,7.0,SE,4.6,-,N/A,,Clear,130,2013-12-05 18:35:00
12:55 PM,84.6,63.1,48,29.77,10.0,ESE,4.6,-,N/A,,Clear,120,2013-12-05 18:55:00
1:15 PM,86.5,62.1,44,29.76,10.0,ESE,8.1,-,N/A,,Clear,120,2013-12-05 19:15:00
1:35 PM,86.7,61.5,43,29.75,10.0,SE,5.8,-,N/A,,Clear,130,2013-12-05 19:35:00
1:55 PM,87.4,61.2,41,29.74,10.0,NE,4.6,-,N/A,,Clear,50,2013-12-05 19:55:00
2:15 PM,88.2,59.2,37,29.75,10.0,East,3.5,-,N/A,,Clear,80,2013-12-05 20:15:00
2:35 PM,89.1,59.7,37,29.74,10.0,NNE,4.6,-,N/A,,Clear,20,2013-12-05 20:35:00
2:55 PM,88.7,59.2,37,29.74,10.0,East,4.6,-,N/A,,Clear,90,2013-12-05 20:55:00
3:15 PM,88.9,58.8,36,29.74,7.0,Calm,Calm,-,N/A,,Clear,0,2013-12-05 21:15:00
3:35 PM,88.9,57.6,35,29.74,10.0,ENE,3.5,-,N/A,,Clear,60,2013-12-05 21:35:00
3:55 PM,89.2,57.6,34,29.73,10.0,ENE,6.9,-,N/A,,Clear,70,2013-12-05 21:55:00
4:35 PM,85.5,58.6,40,29.76,10.0,North,16.1,20.7,N/A,,Clear,360,2013-12-05 22:35:00
4:55 PM,75.0,52.3,45,29.78,7.0,North,16.1,23.0,N/A,,Clear,360,2013-12-05 22:55:00
5:15 PM,71.8,51.3,48,29.79,10.0,North,15.0,20.7,N/A,,Clear,10,2013-12-05 23:15:00
5:35 PM,68.2,49.1,50,29.82,10.0,North,16.1,23.0,N/A,,Clear,360,2013-12-05 23:35:00
5:55 PM,65.5,48.2,54,29.83,10.0,North,13.8,19.6,N/A,,Clear,360,2013-12-05 23:55:00
6:15 PM,62.6,47.1,57,29.85,10.0,North,15.0,21.9,N/A,,Clear,350,2013-12-06 00:15:00
6:35 PM,60.1,45.5,59,29.87,10.0,North,17.3,25.3,N/A,,Clear,350,2013-12-06 00:35:00
6:55 PM,57.6,45.0,63,29.90,10.0,North,13.8,19.6,N/A,,Mostly Cloudy,350,2013-12-06 00:55:00
7:15 PM,56.5,45.1,66,29.92,7.0,North,18.4,24.2,N/A,,Overcast,360,2013-12-06 01:15:00
7:35 PM,54.9,45.3,70,29.93,7.0,NNE,15.0,21.9,N/A,,Overcast,20,2013-12-06 01:35:00
7:55 PM,54.5,44.6,69,29.94,7.0,North,13.8,19.6,N/A,,Overcast,360,2013-12-06 01:55:00
8:15 PM,52.9,43.7,71,29.95,7.0,North,11.5,19.6,N/A,,Overcast,360,2013-12-06 02:15:00
8:35 PM,52.5,43.5,71,29.97,7.0,North,15.0,18.4,N/A,,Overcast,350,2013-12-06 02:35:00
8:55 PM,51.4,43.0,73,29.98,7.0,NNW,15.0,21.9,N/A,,Overcast,340,2013-12-06 02:55:00
9:15 PM,50.9,42.8,74,29.98,7.0,North,12.7,18.4,N/A,,Overcast,350,2013-12-06 03:15:00
9:35 PM,50.5,41.7,72,29.98,7.0,North,12.7,17.3,N/A,,Overcast,360,2013-12-06 03:35:00
9:55 PM,50.2,41.2,71,29.99,7.0,North,10.4,-,N/A,,Overcast,10,2013-12-06 03:55:00
10:15 PM,50.0,40.6,70,29.99,7.0,North,11.5,-,N/A,,Overcast,350,2013-12-06 04:15:00
10:35 PM,49.5,40.5,71,30.00,7.0,North,10.4,-,N/A,,Overcast,10,2013-12-06 04:35:00
10:55 PM,48.2,39.9,73,30.00,7.0,North,10.4,-,N/A,,Overcast,360,2013-12-06 04:55:00
11:15 PM,47.5,40.1,76,30.01,7.0,North,10.4,17.3,N/A,,Overcast,360,2013-12-06 05:15:00
11:35 PM,47.1,40.1,77,30.01,7.0,NNW,8.1,-,N/A,,Overcast,340,2013-12-06 05:35:00
11:55 PM,47.1,39.4,74,30.02,7.0,NNW,9.2,-,N/A,,Overcast,330,2013-12-06 05:55:00